QPF
0.05 0.06 0.05 0.05 0.05 0.05 0.05 0.05 0.05 0.04 0.04 0.04 0.04 0.04 0.03 0.03 0.03 0.03 0.03 0.03 0.03 0.03 0.03 0.03 0.03 0.03 0.02 0.02 0.02 0.02 0.02 0.02 0.01 0.01 0.01 0.01 0.01 0.01 0.01 0.01 0.02 0.03 0.03 0.02 0.01 0.01 0.02 0.02 0.01 0.02 0.02 0.02 0.02 0.02 0.02 0.03 0.03 0.04 0.04 0.05 0.06 0.07 0.07
0.06 0.07 0.07 0.07 0.07 0.06 0.06 0.06 0.06 0.06 0.05 0.05 0.04 0.04 0.03 0.03 0.03 0.03 0.03 0.03 0.03 0.03 0.03 0.03 0.02 0.02 0.02 0.02 0.02 0.02 0.01 0.01 0.01 0.01 0.01 0.01 0.01 0.01 0.01 0.01 0.02 0.02 0.03 0.03 0.02 0.01 0.01 0.01 0.01 0.01 0.01 0.02 0.02 0.02 0.02 0.02 0.02 0.03 0.03 0.04 0.04 0.05 0.06
0.06 0.07 0.07 0.07 0.07 0.07 0.07 0.06 0.06 0.06 0.06 0.06 0.05 0.05 0.05 0.04 0.04 0.04 0.04 0.03 0.03 0.03 0.03 0.03 0.02 0.02 0.02 0.02 0.01 0.01 0.01 0.01 0.01 0.01 0.01 0.01 0.01 0.01 0.01 0.01 0.01 0.02 0.02 0.02 0.02 0.02 0.02 0.02 0.02 0.02 0.02 0.02 0.02 0.02 0.02 0.02 0.02 0.02 0.02 0.03 0.03 0.04 0.04
0.07 0.07 0.07 0.07 0.07 0.07 0.07 0.07 0.07 0.07 0.07 0.06 0.06 0.05 0.05 0.05 0.05 0.04 0.04 0.04 0.03 0.03 0.03 0.03 0.03 0.02 0.02 0.02 0.02 0.02 0.01 0.01 0.01 0.01 0.01 0.01 0.01 0.01 0.01 0.01 0.01 0.01 0.02 0.02 0.02 0.01 0.02 0.02 0.02 0.02 0.01 0.01 0.02 0.02 0.02 0.02 0.03 0.02 0.02 0.02 0.02 0.03 0.03
0.06 0.07 0.07 0.07 0.07 0.08 0.08 0.08 0.07 0.07 0.07 0.07 0.06 0.05 0.05 0.05 0.05 0.04 0.04 0.04 0.03 0.03 0.03 0.03 0.03 0.02 0.02 0.02 0.02 0.02 0.02 0.01 0.01 0.01 0.01 0.01 0.00 0.00 0.00 0.00 0.01 0.01 0.01 0.01 0.01 0.01 0.01 0.01 0.02 0.03 0.02 0.01 0.02 0.02 0.02 0.02 0.02 0.02 0.02 0.02 0.02 0.02 0.03
0.06 0.06 0.06 0.06 0.06 0.07 0.07 0.07 0.07 0.07 0.08 0.07 0.06 0.06 0.05 0.05 0.05 0.04 0.04 0.04 0.03 0.03 0.03 0.03 0.03 0.02 0.02 0.02 0.02 0.02 0.02 0.02 0.01 0.01 0.01 0.01 0.00 0.01 0.00 0.00 0.00 0.00 0.00 0.00 0.00 0.00 0.01 0.01 0.01 0.01 0.01 0.01 0.02 0.02 0.02 0.02 0.02 0.02 0.02 0.02 0.02 0.02 0.03
0.05 0.05 0.05 0.05 0.05 0.06 0.06 0.06 0.06 0.07 0.07 0.07 0.06 0.06 0.05 0.05 0.05 0.04 0.04 0.04 0.03 0.03 0.03 0.02 0.02 0.02 0.02 0.02 0.02 0.02 0.02 0.02 0.02 0.01 0.01 0.01 0.01 0.01 0.00 0.00 0.00 0.00 0.00 0.00 0.00 0.00 0.00 0.00 0.00 0.00 0.01 0.00 0.01 0.01 0.01 0.02 0.02 0.02 0.02 0.02 0.03 0.03 0.03
0.04 0.04 0.04 0.04 0.04 0.04 0.05 0.05 0.05 0.05 0.06 0.06 0.05 0.05 0.05 0.05 0.04 0.04 0.04 0.03 0.03 0.03 0.02 0.02 0.02 0.02 0.02 0.02 0.02 0.02 0.02 0.02 0.02 0.01 0.01 0.01 0.01 0.01 0.00 0.00 0.00 0.00 0.00 0.00 0.00 0.00 0.00 0.00 0.00 0.00 0.00 0.00 0.00 0.00 0.00 0.01 0.01 0.01 0.02 0.01 0.01 0.01 0.03
0.03 0.03 0.03 0.03 0.03 0.03 0.04 0.03 0.04 0.05 0.07 0.06 0.04 0.04 0.05 0.04 0.04 0.03 0.03 0.03 0.03 0.02 0.02 0.02 0.02 0.02 0.02 0.01 0.01 0.01 0.01 0.02 0.02 0.01 0.01 0.01 0.01 0.01 0.01 0.01 0.00 0.00 0.00 0.00 0.00 0.00 0.00 0.00 0.00 0.00 0.00 0.00 0.00 0.00 0.00 0.00 0.00 0.00 0.00 0.01 0.01 0.01 0.02
0.02 0.02 0.02 0.02 0.02 0.03 0.03 0.03 0.03 0.04 0.10 0.06 0.03 0.03 0.04 0.04 0.04 0.03 0.03 0.03 0.02 0.02 0.02 0.02 0.01 0.01 0.01 0.01 0.01 0.01 0.01 0.01 0.02 0.01 0.01 0.01 0.01 0.01 0.01 0.01 0.00 0.00 0.00 0.00 0.00 0.00 0.00 0.00 0.00 0.00 0.00 0.00 0.00 0.00 0.00 0.00 0.00 0.00 0.00 0.00 0.00 0.00 0.01
0.02 0.02 0.02 0.02 0.02 0.02 0.02 0.02 0.02 0.03 0.10 0.06 0.05 0.03 0.02 0.03 0.03 0.03 0.03 0.03 0.02 0.02 0.01 0.01 0.01 0.01 0.01 0.01 0.01 0.01 0.01 0.01 0.01 0.01 0.01 0.00 0.00 0.00 0.01 0.01 0.01 0.01 0.00 0.00 0.00 0.00 0.00 0.00 0.00 0.00 0.00 0.00 0.00 0.00 0.00 0.00 0.00 0.00 0.00 0.00 0.00 0.00 0.00
0.01 0.02 0.02 0.01 0.01 0.01 0.01 0.02 0.02 0.02 0.06 0.06 0.05 0.04 0.02 0.02 0.02 0.03 0.03 0.03 0.02 0.02 0.01 0.01 0.01 0.01 0.01 0.01 0.01 0.00 0.01 0.01 0.01 0.01 0.01 0.00 0.00 0.00 0.00 0.01 0.01 0.01 0.01 0.01 0.01 0.00 0.01 0.01 0.00 0.00 0.01 0.01 0.01 0.01 0.00 0.00 0.00 0.00 0.00 0.00 0.00 0.00 0.00
0.01 0.01 0.01 0.01 0.01 0.01 0.01 0.01 0.01 0.01 0.04 0.05 0.05 0.05 0.03 0.01 0.01 0.02 0.02 0.03 0.02 0.02 0.01 0.01 0.01 0.01 0.01 0.01 0.00 0.00 0.00 0.00 0.01 0.01 0.01 0.00 0.00 0.00 0.00 0.00 0.00 0.00 0.01 0.01 0.00 0.01 0.01 0.01 0.01 0.00 0.01 0.01 0.01 0.01 0.00 0.00 0.00 0.00 0.00 0.00 0.00 0.00 0.00
0.01 0.01 0.01 0.01 0.01 0.01 0.01 0.01 0.01 0.01 0.02 0.03 0.05 0.05 0.03 0.01 0.00 0.01 0.01 0.02 0.02 0.02 0.01 0.01 0.01 0.01 0.01 0.01 0.00 0.00 0.00 0.00 0.00 0.01 0.01 0.01 0.00 0.00 0.00 0.00 0.00 0.00 0.00 0.01 0.01 0.01 0.01 0.00 0.01 0.01 0.01 0.01 0.01 0.01 0.01 0.00 0.00 0.00 0.00 0.00 0.00 0.00 0.00
0.01 0.01 0.01 0.01 0.01 0.01 0.01 0.01 0.01 0.01 0.01 0.02 0.04 0.05 0.03 0.01 0.00 0.00 0.00 0.01 0.01 0.01 0.01 0.01 0.01 0.01 0.00 0.00 0.00 0.00 0.00 0.00 0.00 0.01 0.01 0.00 0.00 0.00 0.00 0.00 0.00 0.00 0.00 0.00 0.01 0.01 0.00 0.00 0.00 0.00 0.01 0.01 0.01 0.01 0.01 0.00 0.00 0.00 0.00 0.00 0.00 0.00 0.00
0.00 0.00 0.00 0.00 0.00 0.01 0.01 0.00 0.00 0.00 0.00 0.01 0.02 0.04 0.03 0.00 0.00 0.00 0.00 0.00 0.00 0.01 0.01 0.01 0.01 0.01 0.00 0.00 0.00 0.00 0.00 0.00 0.01 0.02 0.01 0.00 0.00 0.00 0.00 0.00 0.00 0.00 0.00 0.00 0.01 0.01 0.00 0.00 0.00 0.00 0.00 0.00 0.00 0.00 0.00 0.00 0.00 0.00 0.00 0.00 0.00 0.00 0.00
0.00 0.00 0.00 0.00 0.00 0.00 0.00 0.00 0.00 0.00 0.00 0.01 0.01 0.03 0.02 0.01 0.00 0.00 0.00 0.00 0.00 0.00 0.00 0.00 0.00 0.00 0.00 0.00 0.00 0.00 0.00 0.00 0.02 0.02 0.01 0.00 0.00 0.00 0.00 0.00 0.00 0.00 0.00 0.00 0.00 0.00 0.00 0.00 0.00 0.00 0.00 0.00 0.00 0.00 0.00 0.00 0.00 0.00 0.00 0.00 0.00 0.00 0.00
0.00 0.00 0.00 0.00 0.00 0.00 0.00 0.00 0.00 0.00 0.00 0.00 0.01 0.02 0.02 0.02 0.01 0.00 0.00 0.00 0.00 0.00 0.00 0.00 0.00 0.00 0.00 0.00 0.00 0.00 0.00 0.01 0.01 0.01 0.01 0.01 0.01 0.00 0.00 0.00 0.00 0.00 0.00 0.00 0.00 0.00 0.00 0.00 0.00 0.00 0.00 0.00 0.00 0.00 0.00 0.00 0.00 0.00 0.00 0.00 0.00 0.00 0.00
0.00 0.00 0.00 0.00 0.00 0.00 0.00 0.00 0.00 0.00 0.00 0.00 0.01 0.01 0.02 0.02 0.01 0.00 0.00 0.00 0.00 0.00 0.00 0.00 0.00 0.00 0.00 0.00 0.00 0.00 0.00 0.00 0.00 0.02 0.03 0.02 0.01 0.00 0.00 0.00 0.01 0.00 0.00 0.00 0.00 0.00 0.00 0.00 0.00 0.00 0.00 0.00 0.00 0.00 0.00 0.00 0.00 0.00 0.00 0.00 0.00 0.00 0.00
0.00 0.00 0.00 0.00 0.00 0.00 0.00 0.00 0.00 0.00 0.00 0.00 0.00 0.00 0.02 0.02 0.00 0.00 0.00 0.00 0.00 0.00 0.00 0.00 0.00 0.00 0.00 0.00 0.00 0.00 0.00 0.00 0.00 0.03 0.03 0.02 0.01 0.00 0.01 0.01 0.00 0.00 0.00 0.00 0.00 0.00 0.00 0.00 0.00 0.00 0.00 0.00 0.00 0.00 0.00 0.00 0.00 0.00 0.00 0.00 0.00 0.00 0.00
0.00 0.00 0.00 0.00 0.00 0.00 0.00 0.00 0.00 0.00 0.00 0.00 0.00 0.00 0.01 0.01 0.00 0.00 0.00 0.00 0.00 0.00 0.00 0.00 0.00 0.00 0.00 0.00 0.00 0.00 0.00 0.00 0.01 0.05 0.04 0.01 0.00 0.02 0.03 0.00 0.00 0.00 0.00 0.00 0.00 0.00 0.00 0.00 0.00 0.00 0.00 0.00 0.00 0.00 0.00 0.00 0.00 0.00 0.00 0.00 0.00 0.00 0.00
0.00 0.00 0.00 0.00 0.00 0.00 0.00 0.00 0.00 0.00 0.00 0.00 0.00 0.00 0.00 0.00 0.00 0.01 0.01 0.01 0.00 0.00 0.00 0.00 0.00 0.00 0.00 0.00 0.00 0.00 0.00 0.02 0.03 0.02 0.01 0.00 0.02 0.02 0.00 0.00 0.00 0.00 0.00 0.00 0.00 0.00 0.00 0.00 0.00 0.00 0.00 0.00 0.00 0.00 0.00 0.00 0.00 0.00 0.00 0.00 0.00 0.00 0.00
0.00 0.00 0.00 0.00 0.00 0.00 0.00 0.00 0.00 0.00 0.00 0.00 0.00 0.00 0.00 0.00 0.01 0.00 0.00 0.00 0.00 0.00 0.00 0.00 0.00 0.00 0.00 0.00 0.00 0.01 0.02 0.02 0.01 0.00 0.00 0.00 0.01 0.00 0.00 0.00 0.00 0.00 0.00 0.00 0.00 0.00 0.00 0.00 0.00 0.00 0.00 0.00 0.00 0.00 0.00 0.00 0.00 0.00 0.00 0.00 0.00 0.00 0.00
0.00 0.00 0.00 0.00 0.00 0.00 0.00 0.00 0.00 0.00 0.00 0.00 0.00 0.00 0.00 0.00 0.00 0.00 0.00 0.00 0.00 0.00 0.00 0.00 0.00 0.00 0.00 0.00 0.01 0.01 0.01 0.01 0.00 0.00 0.00 0.00 0.00 0.00 0.00 0.00 0.00 0.00 0.00 0.00 0.00 0.00 0.00 0.00 0.00 0.00 0.00 0.00 0.00 0.00 0.00 0.00 0.00 0.00 0.00 0.00 0.00 0.00 0.00
0.00 0.00 0.00 0.00 0.00 0.00 0.00 0.00 0.00 0.00 0.00 0.00 0.00 0.00 0.00 0.00 0.00 0.00 0.00 0.00 0.00 0.00 0.00 0.00 0.00 0.00 0.00 0.01 0.00 0.00 0.00 0.00 0.00 0.00 0.00 0.00 0.00 0.00 0.00 0.00 0.00 0.00 0.00 0.00 0.00 0.00 0.00 0.00 0.00 0.00 0.00 0.00 0.00 0.00 0.00 0.00 0.00 0.00 0.00 0.00 0.00 0.00 0.00
0.00 0.00 0.00 0.00 0.00 0.00 0.00 0.00 0.00 0.00 0.00 0.00 0.00 0.00 0.00 0.00 0.00 0.00 0.00 0.00 0.00 0.00 0.00 0.01 0.01 0.00 0.00 0.00 0.00 0.00 0.00 0.00 0.00 0.00 0.00 0.00 0.00 0.00 0.00 0.00 0.00 0.00 0.00 0.00 0.00 0.00 0.00 0.00 0.00 0.00 0.00 0.00 0.00 0.00 0.00 0.00 0.00 0.00 0.00 0.00 0.00 0.00 0.00
0.00 0.00 0.00 0.00 0.00 0.00 0.00 0.00 0.00 0.00 0.00 0.00 0.00 0.00 0.00 0.00 0.00 0.00 0.00 0.00 0.00 0.00 0.00 0.00 0.00 0.00 0.00 0.00 0.00 0.00 0.00 0.00 0.00 0.00 0.00 0.00 0.00 0.00 0.00 0.00 0.00 0.00 0.00 0.00 0.00 0.00 0.00 0.00 0.00 0.00 0.00 0.00 0.00 0.00 0.00 0.00 0.00 0.00 0.00 0.00 0.00 0.00 0.00
0.00 0.00 0.00 0.00 0.00 0.00 0.00 0.00 0.00 0.00 0.00 0.00 0.00 0.00 0.00 0.00 0.00 0.00 0.00 0.00 0.00 0.00 0.00 0.00 0.00 0.00 0.00 0.00 0.00 0.00 0.00 0.00 0.00 0.00 0.00 0.00 0.00 0.00 0.00 0.00 0.00 0.00 0.00 0.00 0.00 0.00 0.00 0.00 0.00 0.00 0.00 0.00 0.00 0.00 0.00 0.00 0.00 0.00 0.00 0.00 0.00 0.00 0.00
0.00 0.00 0.00 0.00 0.00 0.00 0.00 0.00 0.00 0.00 0.00 0.00 0.00 0.00 0.00 0.00 0.00 0.00 0.00 0.00 0.01 0.01 0.00 0.00 0.00 0.00 0.00 0.00 0.00 0.00 0.00 0.00 0.00 0.00 0.00 0.00 0.00 0.00 0.00 0.00 0.00 0.00 0.00 0.00 0.00 0.00 0.00 0.00 0.00 0.00 0.00 0.00 0.00 0.00 0.00 0.00 0.00 0.00 0.00 0.00 0.00 0.00 0.00
0.00 0.00 0.00 0.00 0.00 0.00 0.00 0.00 0.00 0.00 0.00 0.00 0.00 0.00 0.00 0.00 0.00 0.01 0.01 0.01 0.00 0.01 0.01 0.00 0.00 0.00 0.00 0.00 0.00 0.00 0.00 0.00 0.00 0.00 0.00 0.00 0.00 0.00 0.00 0.00 0.00 0.00 0.00 0.00 0.00 0.00 0.00 0.00 0.00 0.00 0.00 0.00 0.00 0.00 0.00 0.00 0.00 0.00 0.00 0.00 0.00 0.00 0.00
0.00 0.00 0.00 0.00 0.00 0.00 0.00 0.00 0.00 0.00 0.00 0.00 0.00 0.00 0.00 0.01 0.00 0.00 0.01 0.01 0.01 0.00 0.00 0.00 0.00 0.00 0.00 0.00 0.00 0.00 0.00 0.00 0.00 0.00 0.00 0.00 0.00 0.00 0.00 0.00 0.00 0.00 0.00 0.00 0.00 0.00 0.00 0.00 0.00 0.00 0.00 0.00 0.00 0.00 0.00 0.00 0.00 0.00 0.00 0.00 0.00 0.00 0.00
0.00 0.00 0.00 0.00 0.00 0.00 0.00 0.00 0.00 0.00 0.00 0.00 0.00 0.00 0.00 0.00 0.00 0.00 0.00 0.00 0.00 0.01 0.00 0.00 0.00 0.00 0.00 0.00 0.00 0.00 0.00 0.00 0.00 0.00 0.00 0.00 0.00 0.00 0.00 0.00 0.00 0.00 0.00 0.00 0.00 0.00 0.00 0.00 0.00 0.00 0.00 0.00 0.00 0.00 0.00 0.00 0.00 0.00 0.00 0.00 0.00 0.00 0.00
0.00 0.00 0.00 0.00 0.00 0.00 0.00 0.00 0.00 0.00 0.00 0.00 0.00 0.00 0.00 0.00 0.00 0.00 0.00 0.00 0.00 0.00 0.00 0.00 0.00 0.00 0.00 0.00 0.00 0.00 0.00 0.00 0.00 0.00 0.00 0.00 0.00 0.00 0.00 0.00 0.00 0.00 0.00 0.00 0.00 0.00 0.00 0.00 0.00 0.00 0.00 0.00 0.00 0.00 0.00 0.00 0.00 0.00 0.00 0.00 0.00 0.00 0.00
0.00 0.00 0.00 0.00 0.00 0.00 0.00 0.00 0.00 0.00 0.00 0.00 0.00 0.00 0.00 0.00 0.00 0.00 0.00 0.00 0.01 0.00 0.00 0.00 0.00 0.00 0.00 0.00 0.00 0.00 0.00 0.00 0.00 0.00 0.00 0.00 0.00 0.00 0.00 0.00 0.00 0.00 0.00 0.00 0.00 0.00 0.00 0.00 0.00 0.00 0.00 0.00 0.00 0.00 0.00 0.00 0.00 0.00 0.00 0.00 0.00 0.00 0.00
0.00 0.00 0.00 0.00 0.00 0.00 0.00 0.00 0.00 0.00 0.00 0.00 0.00 0.00 0.00 0.00 0.00 0.00 0.00 0.00 0.00 0.00 0.00 0.00 0.00 0.00 0.00 0.00 0.00 0.00 0.00 0.00 0.00 0.00 0.00 0.00 0.00 0.00 0.00 0.00 0.00 0.00 0.00 0.00 0.00 0.00 0.00 0.00 0.00 0.00 0.00 0.00 0.00 0.00 0.00 0.00 0.00 0.00 0.00 0.00 0.00 0.00 0.00
0.00 0.00 0.00 0.00 0.00 0.00 0.00 0.00 0.00 0.00 0.00 0.00 0.00 0.00 0.00 0.00 0.00 0.00 0.00 0.00 0.00 0.00 0.00 0.00 0.00 0.00 0.00 0.00 0.00 0.00 0.00 0.00 0.00 0.00 0.00 0.00 0.00 0.00 0.00 0.00 0.00 0.00 0.00 0.00 0.00 0.00 0.00 0.00 0.00 0.00 0.00 0.00 0.00 0.00 0.00 0.00 0.00 0.00 0.00 0.00 0.00 0.00 0.00
MSLP
1037.21 1036.81 1036.45 1036.05 1035.53 1035.01 1034.57 1034.05 1033.57 1033.09 1032.73 1032.61 1032.49 1032.25 1032.05 1031.97 1031.77 1031.61 1031.41 1031.17 1031.13 1030.81 1030.49 1030.21 1030.05 1029.73 1029.57 1029.21 1028.97 1028.45 1028.17 1027.61 1027.13 1026.45 1026.13 1025.77 1025.09 1024.77 1024.25 1023.81 1023.61 1023.29 1021.93 1021.73 1021.65 1021.77 1021.65 1021.61 1021.53 1021.57 1021.57 1021.49 1021.29 1021.21 1021.05 1020.93 1020.89 1020.77 1020.69 1020.61 1020.49 1020.33 1020.13
1037.57 1037.21 1036.85 1036.45 1035.97 1035.45 1035.05 1034.57 1034.09 1033.61 1033.13 1032.97 1032.85 1032.65 1032.41 1032.33 1032.13 1031.93 1031.77 1031.65 1031.53 1031.33 1031.09 1030.85 1030.69 1030.33 1030.17 1029.69 1029.49 1028.93 1028.77 1028.37 1027.93 1027.17 1026.85 1026.69 1026.13 1025.81 1025.25 1024.53 1024.25 1023.89 1023.37 1023.01 1022.01 1022.09 1021.89 1021.97 1021.93 1022.21 1021.97 1022.01 1021.69 1021.69 1021.53 1021.41 1021.29 1021.21 1021.09 1021.01 1020.85 1020.73 1020.57
1037.93 1037.61 1037.21 1036.85 1036.41 1035.93 1035.45 1034.97 1034.57 1034.05 1033.57 1033.25 1033.21 1033.09 1032.89 1032.73 1032.61 1032.37 1032.17 1032.13 1032.05 1031.89 1031.61 1031.41 1031.17 1031.01 1030.85 1030.33 1029.81 1029.17 1029.09 1028.85 1028.57 1027.97 1027.69 1027.57 1027.09 1026.65 1026.09 1025.49 1024.85 1024.49 1024.21 1023.65 1023.09 1022.37 1022.53 1022.25 1022.37 1022.61 1022.61 1022.33 1022.17 1022.05 1022.01 1021.93 1021.77 1021.69 1021.53 1021.37 1021.21 1021.13 1021.05
1038.25 1037.89 1037.53 1037.21 1036.81 1036.33 1035.89 1035.41 1034.97 1034.49 1034.01 1033.57 1033.57 1033.49 1033.33 1033.13 1033.05 1032.89 1032.69 1032.57 1032.53 1032.37 1032.09 1031.81 1031.69 1031.49 1031.29 1030.93 1030.37 1029.69 1029.41 1029.17 1029.09 1028.65 1028.37 1028.21 1027.89 1027.41 1026.85 1026.29 1025.57 1025.01 1024.69 1024.33 1023.73 1022.97 1022.69 1022.57 1022.57 1022.73 1022.69 1022.61 1022.49 1022.29 1022.33 1022.33 1022.29 1022.05 1021.93 1021.77 1021.57 1021.45 1021.37
1038.49 1038.21 1037.85 1037.53 1037.17 1036.77 1036.33 1035.85 1035.33 1034.89 1034.41 1033.89 1033.81 1033.77 1033.65 1033.57 1033.41 1033.33 1033.17 1033.01 1032.77 1032.73 1032.61 1032.37 1032.13 1031.89 1031.57 1031.37 1030.89 1030.29 1029.85 1029.53 1029.57 1029.21 1029.13 1028.89 1028.65 1028.17 1027.49 1026.93 1026.29 1025.57 1025.05 1024.61 1024.13 1023.53 1022.93 1022.65 1022.73 1022.85 1022.97 1022.89 1022.93 1022.65 1022.73 1022.81 1022.73 1022.57 1022.29 1022.13 1021.97 1021.73 1021.73
1038.85 1038.53 1038.13 1037.81 1037.45 1037.09 1036.73 1036.25 1035.77 1035.33 1034.89 1034.17 1034.05 1033.97 1033.93 1033.81 1033.73 1033.61 1033.53 1033.41 1033.21 1032.93 1032.89 1032.77 1032.53 1032.29 1031.97 1031.73 1031.33 1030.97 1030.45 1030.01 1029.97 1029.77 1029.81 1029.49 1029.29 1028.77 1028.09 1027.61 1026.93 1026.37 1025.65 1024.97 1024.41 1024.05 1023.57 1023.21 1023.21 1023.45 1023.41 1023.37 1023.33 1023.21 1023.21 1023.13 1023.05 1022.93 1022.61 1022.49 1022.29 1022.05 1022.05
1039.05 1038.81 1038.45 1038.13 1037.73 1037.41 1037.01 1036.57 1036.09 1035.69 1035.25 1034.61 1034.21 1034.17 1034.13 1034.05 1033.93 1033.85 1033.73 1033.77 1033.61 1033.33 1033.13 1033.01 1032.81 1032.61 1032.33 1032.05 1031.61 1031.29 1030.89 1030.41 1030.25 1030.21 1030.33 1029.97 1029.77 1029.17 1028.61 1028.17 1027.61 1027.05 1026.41 1025.85 1025.13 1024.61 1024.29 1024.17 1023.97 1024.29 1024.45 1024.05 1024.05 1024.05 1023.97 1023.85 1023.49 1023.41 1023.01 1022.89 1022.69 1022.65 1022.53
1039.21 1038.93 1038.69 1038.37 1038.05 1037.69 1037.29 1036.85 1036.37 1035.97 1035.57 1034.81 1034.37 1034.33 1034.29 1034.17 1034.13 1033.97 1033.97 1033.89 1033.85 1033.61 1033.37 1033.17 1032.97 1032.73 1032.53 1032.29 1031.97 1031.57 1031.25 1030.81 1030.53 1030.53 1030.61 1030.25 1029.89 1029.37 1028.89 1028.53 1028.17 1027.77 1027.17 1026.77 1026.05 1025.53 1025.29 1025.01 1025.05 1024.97 1025.05 1024.97 1024.89 1024.89 1024.65 1024.57 1024.61 1024.53 1023.93 1023.45 1023.21 1023.37 1023.25
1039.37 1039.09 1038.81 1038.49 1038.25 1037.93 1037.53 1037.09 1036.69 1036.29 1035.81 1034.73 1034.53 1034.53 1034.41 1034.41 1034.25 1034.17 1034.09 1034.01 1034.01 1033.85 1033.57 1033.37 1033.05 1032.81 1032.49 1032.33 1032.17 1031.85 1031.57 1031.33 1030.89 1030.81 1030.89 1030.53 1030.09 1029.73 1029.37 1029.05 1028.81 1028.41 1027.97 1027.49 1026.85 1026.41 1026.01 1025.97 1025.93 1025.89 1026.05 1026.09 1026.17 1026.37 1026.33 1025.73 1025.21 1024.89 1024.29 1024.05 1023.89 1023.61 1023.73
1039.41 1039.21 1039.01 1038.69 1038.45 1038.21 1037.89 1037.49 1037.01 1036.57 1035.61 1034.41 1034.69 1034.61 1034.69 1034.57 1034.45 1034.29 1034.25 1034.17 1034.17 1034.01 1033.73 1033.57 1033.29 1032.97 1032.61 1032.41 1032.33 1032.13 1031.97 1031.73 1031.41 1030.97 1030.93 1030.85 1030.45 1030.09 1029.93 1029.65 1029.45 1029.13 1028.81 1028.37 1027.69 1027.09 1026.93 1027.01 1027.01 1026.85 1027.21 1027.25 1027.25 1027.09 1026.77 1026.53 1025.85 1025.57 1024.93 1024.85 1024.49 1024.09 1023.81
1039.45 1039.25 1039.05 1038.89 1038.73 1038.45 1038.13 1037.77 1037.37 1036.77 1035.57 1034.61 1034.29 1034.85 1034.77 1034.81 1034.61 1034.41 1034.33 1034.37 1034.37 1034.21 1033.93 1033.73 1033.49 1033.25 1032.89 1032.69 1032.53 1032.41 1032.25 1032.09 1031.77 1031.33 1030.93 1030.85 1030.69 1030.41 1030.25 1030.21 1030.01 1029.69 1029.41 1029.17 1028.77 1028.05 1028.21 1028.29 1028.29 1027.97 1027.85 1028.01 1027.85 1027.73 1027.57 1027.33 1026.77 1026.49 1026.09 1026.01 1025.53 1025.37 1024.09
1039.45 1039.25 1039.09 1038.97 1038.89 1038.69 1038.37 1038.05 1037.65 1036.89 1035.81 1035.01 1034.49 1034.37 1034.97 1034.81 1034.81 1034.57 1034.49 1034.49 1034.45 1034.33 1034.17 1033.89 1033.57 1033.37 1033.09 1032.89 1032.65 1032.57 1032.53 1032.37 1032.05 1031.69 1031.21 1030.93 1030.89 1030.77 1030.53 1030.41 1030.37 1030.17 1029.89 1029.61 1029.73 1029.37 1029.33 1029.45 1029.29 1029.21 1028.61 1028.53 1028.41 1028.13 1028.09 1027.69 1027.49 1027.33 1027.05 1026.93 1026.61 1026.17 1025.93
1039.53 1039.25 1039.13 1039.01 1038.85 1038.65 1038.41 1038.21 1037.85 1037.13 1036.09 1035.33 1034.89 1034.37 1034.81 1034.97 1034.89 1034.73 1034.57 1034.53 1034.45 1034.37 1034.25 1034.01 1033.73 1033.45 1033.25 1033.13 1032.89 1032.81 1032.69 1032.49 1032.29 1031.93 1031.49 1031.13 1031.13 1031.05 1030.85 1030.65 1030.53 1030.37 1030.13 1030.01 1030.25 1030.13 1030.33 1030.05 1029.89 1029.89 1029.33 1029.05 1028.89 1028.49 1028.57 1027.93 1028.01 1027.77 1027.65 1027.53 1027.29 1026.81 1026.05
1039.65 1039.37 1039.17 1038.97 1038.81 1038.61 1038.41 1038.21 1037.89 1037.25 1036.25 1035.65 1035.13 1034.61 1034.65 1035.17 1035.01 1034.85 1034.61 1034.53 1034.45 1034.33 1034.21 1034.01 1033.77 1033.57 1033.45 1033.29 1033.21 1033.09 1032.85 1032.57 1032.37 1032.09 1031.69 1031.37 1031.29 1031.17 1031.09 1030.89 1030.73 1030.65 1030.33 1030.13 1030.25 1030.33 1030.53 1030.21 1030.13 1030.17 1029.61 1029.33 1029.01 1028.89 1028.65 1028.29 1028.21 1027.89 1027.93 1027.77 1027.53 1026.89 1026.53
1039.77 1039.49 1039.21 1038.97 1038.77 1038.53 1038.29 1038.13 1037.81 1037.17 1036.45 1035.89 1035.37 1034.77 1034.93 1035.29 1035.17 1034.93 1034.69 1034.57 1034.49 1034.29 1034.17 1033.97 1033.73 1033.57 1033.49 1033.37 1033.33 1033.21 1032.89 1032.61 1032.33 1031.93 1031.65 1031.45 1031.37 1031.21 1031.17 1031.05 1030.89 1030.69 1030.45 1030.33 1030.21 1030.29 1030.29 1030.21 1030.05 1029.85 1029.45 1029.17 1028.97 1028.81 1028.57 1028.29 1028.13 1027.97 1027.85 1027.61 1027.25 1026.93 1026.37
1040.01 1039.65 1039.21 1038.93 1038.73 1038.45 1038.21 1037.93 1037.69 1037.21 1036.65 1036.09 1035.61 1034.97 1035.29 1035.41 1035.33 1035.05 1034.85 1034.69 1034.45 1034.29 1034.09 1033.93 1033.73 1033.53 1033.37 1033.29 1033.25 1033.13 1032.85 1032.53 1032.05 1031.69 1031.65 1031.61 1031.37 1031.17 1031.09 1031.05 1030.73 1030.37 1030.25 1030.21 1030.13 1030.13 1030.13 1030.01 1029.73 1029.33 1029.09 1028.81 1028.57 1028.45 1028.37 1028.21 1028.01 1027.97 1027.89 1027.81 1027.65 1027.13 1026.13
1040.09 1039.65 1039.25 1038.93 1038.73 1038.57 1038.25 1037.93 1037.61 1037.33 1036.85 1036.33 1035.73 1035.25 1035.45 1035.49 1035.45 1035.33 1035.01 1034.81 1034.57 1034.41 1034.17 1033.97 1033.73 1033.49 1033.29 1033.17 1033.13 1032.93 1032.73 1032.29 1031.77 1031.81 1031.69 1031.45 1031.17 1031.01 1031.05 1031.01 1031.05 1030.89 1030.57 1030.29 1030.21 1030.21 1030.13 1029.97 1029.69 1029.41 1029.09 1028.81 1028.53 1028.41 1028.37 1028.37 1028.29 1028.29 1027.93 1028.05 1027.81 1027.25 1026.69
1040.05 1039.65 1039.37 1039.17 1038.97 1038.77 1038.33 1037.89 1037.61 1037.37 1037.05 1036.53 1035.93 1035.53 1035.57 1035.57 1035.53 1035.45 1035.25 1034.93 1034.65 1034.49 1034.29 1033.97 1033.69 1033.53 1033.33 1033.09 1032.93 1032.69 1032.53 1031.93 1031.85 1031.85 1031.41 1031.09 1031.13 1031.17 1031.09 1031.21 1031.41 1031.29 1031.01 1030.73 1030.69 1030.65 1030.49 1030.25 1029.97 1029.69 1029.41 1029.09 1028.77 1028.61 1028.45 1028.53 1028.65 1028.25 1028.25 1028.33 1027.93 1027.65 1027.01
1040.13 1039.73 1039.57 1039.45 1039.17 1038.77 1038.37 1037.93 1037.57 1037.33 1037.09 1036.65 1036.09 1035.77 1035.73 1035.69 1035.77 1035.73 1035.57 1035.17 1034.81 1034.61 1034.41 1034.17 1033.97 1033.61 1033.25 1032.97 1032.73 1032.65 1032.37 1032.01 1031.93 1031.57 1031.61 1031.53 1031.45 1031.29 1031.37 1031.41 1031.77 1031.45 1031.05 1030.85 1030.77 1030.69 1030.45 1030.29 1030.01 1029.77 1029.53 1029.25 1028.89 1028.65 1028.41 1028.37 1028.37 1028.29 1028.41 1028.25 1028.05 1027.77 1027.41
1040.33 1040.01 1039.73 1039.53 1039.21 1038.81 1038.37 1037.97 1037.57 1037.29 1037.01 1036.65 1036.21 1035.93 1035.81 1035.93 1036.05 1035.93 1035.69 1035.49 1035.09 1034.61 1034.45 1034.33 1034.01 1033.65 1033.41 1033.09 1032.89 1032.89 1032.65 1032.17 1031.57 1031.33 1031.77 1031.65 1031.57 1031.41 1031.61 1031.49 1031.69 1031.33 1031.01 1030.85 1030.77 1030.57 1030.37 1030.21 1029.93 1029.77 1029.45 1029.17 1028.89 1028.61 1028.53 1028.49 1028.57 1028.53 1028.49 1028.45 1028.29 1028.13 1027.89
1040.37 1040.05 1039.65 1039.37 1039.01 1038.61 1038.25 1037.93 1037.57 1037.17 1036.81 1036.57 1036.45 1036.09 1035.81 1036.05 1036.21 1036.01 1035.73 1035.45 1035.29 1035.01 1034.57 1034.25 1034.09 1033.93 1033.61 1033.21 1033.05 1032.93 1032.73 1032.09 1031.29 1031.21 1031.89 1031.93 1031.73 1031.37 1031.41 1031.53 1031.61 1031.29 1031.05 1030.97 1030.69 1030.49 1030.29 1030.13 1029.93 1029.77 1029.45 1029.13 1028.77 1028.77 1028.93 1028.85 1028.69 1028.69 1028.65 1028.65 1028.53 1028.37 1028.05
1040.13 1039.73 1039.33 1039.01 1038.65 1038.29 1037.93 1037.61 1037.25 1036.93 1036.65 1036.41 1036.29 1036.05 1035.85 1036.09 1036.09 1035.85 1035.61 1035.57 1035.53 1035.29 1034.89 1034.49 1034.13 1033.93 1033.69 1033.33 1033.09 1032.93 1032.57 1031.77 1031.45 1031.73 1032.01 1032.01 1031.49 1031.37 1031.57 1031.57 1031.53 1031.45 1031.21 1030.97 1030.69 1030.53 1030.33 1030.13 1029.97 1029.77 1029.45 1029.09 1028.97 1029.13 1029.13 1029.05 1028.93 1028.81 1028.73 1028.65 1028.61 1028.53 1028.29
1039.77 1039.33 1038.89 1038.53 1038.29 1038.01 1037.73 1037.45 1037.17 1036.81 1036.53 1036.33 1036.17 1036.05 1036.05 1035.97 1035.89 1035.77 1035.69 1035.69 1035.49 1035.33 1035.05 1034.69 1034.33 1033.93 1033.61 1033.29 1033.05 1032.77 1032.29 1032.09 1032.17 1032.13 1032.17 1031.81 1031.53 1031.57 1031.65 1031.61 1031.61 1031.45 1031.17 1030.93 1030.65 1030.41 1030.33 1030.13 1030.01 1029.73 1029.49 1029.25 1029.25 1029.37 1029.29 1029.17 1029.01 1028.81 1028.69 1028.53 1028.33 1028.13 1028.01
1039.53 1039.17 1038.73 1038.41 1038.13 1037.97 1037.77 1037.45 1037.13 1036.89 1036.69 1036.49 1036.37 1036.17 1036.01 1035.93 1035.89 1035.73 1035.69 1035.49 1035.41 1035.25 1035.05 1034.69 1034.37 1033.89 1033.41 1033.05 1032.85 1032.65 1032.53 1032.37 1032.29 1032.25 1032.01 1031.85 1031.73 1031.69 1031.61 1031.61 1031.57 1031.41 1031.21 1030.85 1030.65 1030.41 1030.25 1030.13 1029.93 1029.73 1029.53 1029.45 1029.45 1029.41 1029.29 1029.17 1028.97 1028.73 1028.49 1028.37 1028.17 1027.93 1027.69
1039.41 1039.05 1038.73 1038.45 1038.13 1037.85 1037.65 1037.41 1037.21 1037.05 1036.81 1036.57 1036.33 1036.13 1036.05 1035.93 1035.89 1035.89 1035.73 1035.49 1035.25 1035.01 1034.73 1034.41 1033.93 1033.53 1033.13 1032.85 1032.65 1032.49 1032.49 1032.53 1032.45 1032.29 1032.09 1031.89 1031.73 1031.57 1031.53 1031.49 1031.41 1031.25 1030.97 1030.85 1030.69 1030.53 1030.29 1030.09 1029.89 1029.77 1029.69 1029.57 1029.49 1029.33 1029.21 1029.05 1028.81 1028.53 1028.29 1028.05 1027.93 1027.73 1027.53
1039.25 1038.93 1038.73 1038.41 1038.13 1037.85 1037.61 1037.41 1037.29 1037.05 1036.81 1036.53 1036.21 1036.09 1036.05 1036.01 1036.01 1035.93 1035.73 1035.49 1035.13 1034.65 1034.17 1033.89 1033.65 1033.45 1033.37 1033.21 1033.01 1032.77 1032.61 1032.49 1032.37 1032.13 1031.89 1031.73 1031.53 1031.45 1031.41 1031.29 1031.21 1031.05 1030.89 1030.85 1030.65 1030.53 1030.37 1030.17 1030.01 1029.89 1029.69 1029.65 1029.49 1029.37 1029.21 1028.93 1028.77 1028.49 1028.41 1028.17 1028.05 1027.77 1027.61
1039.29 1039.01 1038.73 1038.45 1038.21 1037.97 1037.73 1037.49 1037.25 1036.97 1036.69 1036.41 1036.29 1036.25 1036.21 1036.21 1036.09 1035.89 1035.65 1035.45 1035.13 1034.77 1034.53 1034.17 1033.93 1033.77 1033.53 1033.37 1033.09 1032.77 1032.45 1032.21 1032.01 1031.89 1031.73 1031.61 1031.45 1031.33 1031.21 1031.17 1031.13 1031.05 1030.89 1030.77 1030.69 1030.57 1030.41 1030.33 1030.09 1029.93 1029.81 1029.69 1029.53 1029.45 1029.17 1028.97 1028.85 1028.61 1028.53 1028.25 1028.25 1027.97 1027.85
1039.33 1039.09 1038.81 1038.57 1038.37 1038.13 1037.77 1037.41 1037.13 1036.93 1036.73 1036.41 1036.13 1036.01 1036.01 1035.93 1035.77 1035.65 1035.45 1035.17 1034.93 1034.65 1034.33 1034.05 1033.81 1033.69 1033.53 1033.29 1032.97 1032.65 1032.37 1032.17 1031.97 1031.77 1031.53 1031.37 1031.21 1031.13 1031.05 1030.97 1030.85 1030.77 1030.73 1030.65 1030.53 1030.53 1030.41 1030.25 1029.97 1029.93 1029.85 1029.73 1029.61 1029.45 1029.29 1029.09 1029.05 1028.85 1028.69 1028.53 1028.33 1028.13 1028.05
1039.13 1038.89 1038.77 1038.65 1038.37 1038.09 1037.57 1037.21 1036.93 1036.81 1036.73 1036.37 1036.09 1035.85 1035.61 1035.45 1035.37 1035.25 1035.09 1034.85 1034.53 1034.17 1033.93 1033.81 1033.65 1033.49 1033.21 1032.97 1032.57 1032.25 1031.97 1031.73 1031.53 1031.41 1031.33 1031.17 1031.05 1030.97 1030.85 1030.81 1030.77 1030.69 1030.57 1030.45 1030.33 1030.25 1030.05 1030.05 1029.97 1029.97 1029.81 1029.73 1029.57 1029.45 1029.29 1029.25 1029.13 1028.97 1028.85 1028.69 1028.53 1028.45 1028.09
1038.61 1038.45 1038.41 1038.25 1037.97 1037.97 1037.53 1036.97 1036.57 1036.53 1036.37 1036.13 1035.93 1035.69 1035.53 1035.25 1035.01 1034.85 1034.69 1034.49 1034.29 1034.09 1033.73 1033.61 1033.49 1033.25 1033.05 1032.73 1032.41 1032.01 1031.73 1031.45 1031.33 1031.21 1031.17 1031.13 1031.01 1030.89 1030.81 1030.69 1030.61 1030.53 1030.45 1030.33 1030.21 1030.09 1030.05 1030.05 1029.93 1030.01 1029.85 1029.69 1029.49 1029.37 1029.29 1029.21 1029.09 1029.13 1028.97 1028.89 1028.69 1028.37 1028.17
1038.13 1037.85 1037.69 1037.61 1037.25 1037.05 1037.01 1036.65 1036.33 1036.13 1035.97 1035.81 1035.61 1035.37 1035.17 1034.97 1034.77 1034.61 1034.45 1034.29 1034.09 1033.77 1033.65 1033.45 1033.29 1033.05 1032.93 1032.65 1032.33 1031.93 1031.61 1031.37 1031.21 1031.13 1031.05 1031.01 1031.01 1030.93 1030.81 1030.69 1030.57 1030.45 1030.37 1030.29 1030.25 1030.17 1030.21 1030.17 1030.13 1030.05 1029.93 1029.73 1029.49 1029.33 1029.25 1029.25 1029.25 1029.17 1029.09 1028.93 1028.65 1028.41 1028.17
1037.81 1037.45 1037.17 1036.93 1036.85 1036.65 1036.33 1036.17 1036.01 1035.85 1035.61 1035.41 1035.21 1035.05 1034.89 1034.65 1034.41 1034.21 1034.13 1034.05 1034.09 1033.57 1033.21 1033.25 1033.09 1032.81 1032.53 1032.29 1031.97 1031.65 1031.41 1031.21 1031.09 1031.01 1030.97 1030.89 1030.81 1030.73 1030.69 1030.57 1030.49 1030.41 1030.45 1030.37 1030.29 1030.29 1030.25 1030.21 1030.17 1030.05 1029.89 1029.69 1029.53 1029.41 1029.33 1029.29 1029.25 1029.17 1029.05 1028.85 1028.65 1028.49 1028.17
1037.49 1037.17 1036.85 1036.57 1036.33 1036.17 1035.93 1035.61 1035.49 1035.37 1035.21 1035.05 1034.85 1034.69 1034.53 1034.33 1034.09 1033.93 1033.85 1033.85 1033.57 1033.33 1032.89 1032.85 1032.73 1032.45 1032.09 1031.85 1031.49 1031.29 1031.13 1031.01 1030.93 1030.89 1030.85 1030.81 1030.65 1030.53 1030.49 1030.49 1030.45 1030.45 1030.49 1030.37 1030.33 1030.29 1030.29 1030.21 1030.13 1029.93 1029.73 1029.65 1029.57 1029.45 1029.41 1029.33 1029.29 1029.25 1029.13 1028.93 1028.65 1028.45 1028.25
1037.21 1036.85 1036.53 1036.25 1036.01 1035.77 1035.53 1035.33 1035.17 1035.05 1034.89 1034.77 1034.65 1034.49 1034.37 1034.21 1033.85 1033.65 1033.49 1033.41 1033.01 1032.85 1032.53 1032.37 1032.25 1031.93 1031.65 1031.41 1031.21 1031.01 1030.93 1030.81 1030.77 1030.73 1030.65 1030.57 1030.49 1030.41 1030.37 1030.37 1030.37 1030.29 1030.17 1030.13 1030.09 1030.05 1030.01 1029.93 1029.81 1029.73 1029.61 1029.53 1029.53 1029.53 1029.49 1029.45 1029.37 1029.25 1029.09 1028.93 1028.77 1028.53 1028.33
1036.53 1036.53 1036.37 1035.97 1035.65 1035.45 1035.25 1035.05 1034.89 1034.73 1034.57 1034.45 1034.33 1034.25 1034.13 1033.97 1033.57 1033.13 1033.05 1033.09 1032.85 1032.49 1032.13 1031.89 1031.65 1031.49 1031.25 1031.13 1030.89 1030.73 1030.69 1030.57 1030.53 1030.49 1030.41 1030.29 1030.21 1030.13 1030.13 1030.13 1030.09 1030.01 1029.97 1029.89 1029.85 1029.81 1029.73 1029.65 1029.57 1029.53 1029.53 1029.45 1029.41 1029.37 1029.37 1029.29 1029.25 1029.21 1029.13 1029.01 1028.81 1028.57 1028.29
1036.09 1036.01 1035.85 1035.65 1035.29 1035.09 1034.89 1034.69 1034.49 1034.29 1034.13 1033.97 1033.81 1033.77 1033.85 1033.49 1033.09 1033.01 1032.69 1032.57 1032.29 1032.09 1031.61 1031.33 1031.05 1030.89 1030.69 1030.65 1030.49 1030.41 1030.33 1030.25 1030.21 1030.13 1030.09 1030.09 1029.97 1029.85 1029.85 1029.85 1029.81 1029.77 1029.69 1029.65 1029.61 1029.53 1029.49 1029.45 1029.45 1029.45 1029.45 1029.45 1029.33 1029.29 1029.25 1029.21 1029.17 1029.09 1029.01 1028.81 1028.57 1028.37 1028.13
Thickness
5173 5175 5177 5179 5182 5185 5188 5190 5194 5196 5199 5200 5201 5204 5205 5207 5210 5213 5217 5219 5222 5225 5229 5232 5235 5239 5241 5245 5249 5254 5258 5263 5268 5272 5275 5279 5284 5288 5292 5296 5299 5305 5314 5320 5324 5326 5328 5332 5335 5337 5340 5343 5347 5350 5353 5357 5360 5363 5366 5371 5374 5378 5382
5154 5156 5157 5160 5162 5165 5168 5171 5174 5177 5180 5182 5184 5186 5188 5190 5193 5196 5200 5203 5205 5208 5211 5214 5218 5221 5224 5229 5234 5239 5243 5246 5250 5255 5258 5261 5266 5270 5274 5279 5283 5287 5294 5300 5306 5311 5313 5317 5320 5320 5324 5328 5331 5335 5339 5342 5345 5348 5351 5354 5359 5363 5367
5135 5137 5139 5141 5143 5146 5149 5152 5156 5159 5163 5166 5167 5170 5172 5174 5177 5180 5183 5186 5188 5191 5195 5198 5201 5204 5207 5213 5220 5226 5229 5231 5234 5238 5242 5244 5248 5253 5257 5262 5267 5272 5276 5282 5289 5295 5297 5302 5305 5305 5308 5313 5316 5320 5324 5327 5330 5333 5336 5340 5343 5346 5351
5119 5120 5122 5125 5127 5130 5132 5135 5140 5143 5147 5151 5153 5155 5158 5160 5162 5165 5168 5171 5173 5176 5180 5183 5186 5189 5192 5198 5205 5211 5215 5217 5219 5223 5226 5228 5232 5237 5242 5247 5252 5257 5261 5267 5273 5279 5283 5288 5291 5292 5294 5299 5302 5306 5309 5311 5314 5318 5321 5325 5328 5331 5335
5105 5107 5109 5111 5113 5115 5118 5121 5125 5129 5134 5137 5139 5142 5145 5147 5150 5152 5154 5157 5160 5163 5166 5169 5172 5175 5179 5183 5189 5195 5200 5203 5205 5208 5210 5214 5217 5222 5227 5232 5238 5243 5249 5254 5259 5265 5270 5275 5278 5279 5282 5285 5288 5291 5294 5296 5299 5303 5306 5310 5314 5318 5321
5093 5095 5097 5099 5101 5104 5106 5109 5113 5117 5121 5125 5128 5130 5133 5136 5138 5140 5142 5144 5147 5151 5153 5156 5159 5161 5165 5169 5174 5180 5184 5189 5192 5194 5196 5198 5202 5207 5214 5218 5223 5229 5235 5241 5246 5251 5256 5261 5264 5267 5268 5269 5272 5276 5279 5281 5285 5288 5292 5295 5300 5304 5306
5082 5084 5086 5088 5090 5093 5096 5099 5102 5105 5110 5114 5118 5121 5123 5125 5127 5129 5131 5133 5135 5138 5141 5144 5146 5149 5153 5157 5161 5166 5171 5176 5179 5180 5182 5185 5189 5194 5201 5205 5209 5215 5220 5226 5231 5238 5241 5245 5249 5252 5251 5253 5258 5261 5264 5266 5268 5272 5276 5280 5285 5289 5291
5072 5074 5075 5077 5079 5082 5085 5088 5092 5095 5099 5104 5109 5111 5113 5114 5116 5118 5120 5121 5123 5127 5130 5133 5136 5139 5142 5145 5149 5153 5158 5162 5166 5168 5170 5173 5178 5183 5188 5192 5196 5200 5204 5210 5216 5222 5227 5229 5234 5236 5237 5238 5242 5243 5246 5249 5250 5254 5261 5265 5270 5274 5277
5063 5064 5065 5067 5069 5071 5074 5078 5081 5084 5089 5094 5100 5102 5103 5104 5106 5108 5110 5112 5113 5116 5119 5122 5125 5129 5132 5135 5138 5141 5145 5149 5154 5157 5158 5161 5167 5171 5175 5179 5182 5185 5189 5195 5201 5207 5211 5214 5217 5220 5221 5221 5223 5224 5227 5231 5235 5240 5246 5250 5254 5259 5264
5053 5054 5056 5057 5059 5060 5063 5066 5070 5074 5079 5085 5090 5092 5093 5094 5096 5098 5100 5101 5103 5105 5109 5112 5115 5118 5122 5124 5127 5130 5133 5137 5141 5144 5147 5150 5154 5159 5162 5165 5168 5172 5175 5180 5186 5192 5196 5197 5199 5203 5205 5205 5206 5208 5211 5216 5221 5226 5231 5235 5238 5245 5252
5044 5045 5046 5048 5049 5050 5052 5055 5058 5062 5069 5075 5079 5082 5085 5085 5086 5088 5089 5090 5092 5094 5097 5101 5104 5107 5111 5114 5116 5119 5122 5125 5129 5133 5137 5139 5142 5146 5149 5152 5155 5159 5163 5166 5170 5176 5179 5179 5181 5185 5189 5191 5192 5195 5197 5201 5206 5210 5214 5218 5222 5229 5236
5035 5036 5037 5038 5039 5040 5042 5044 5047 5052 5058 5064 5068 5072 5076 5077 5077 5077 5078 5079 5081 5084 5087 5090 5094 5096 5100 5102 5106 5108 5111 5113 5117 5122 5126 5129 5131 5134 5137 5140 5143 5146 5150 5153 5156 5159 5162 5163 5164 5169 5174 5177 5179 5181 5184 5189 5192 5195 5199 5203 5206 5211 5219
5025 5027 5028 5029 5031 5032 5033 5034 5037 5041 5047 5052 5056 5060 5067 5071 5069 5067 5068 5069 5071 5074 5077 5080 5083 5086 5088 5091 5094 5097 5100 5102 5106 5110 5115 5118 5120 5122 5125 5129 5132 5135 5138 5141 5143 5144 5147 5149 5151 5154 5159 5164 5167 5169 5173 5177 5180 5182 5186 5190 5193 5198 5204
5016 5017 5019 5020 5022 5024 5025 5026 5028 5031 5037 5042 5045 5049 5056 5062 5060 5057 5058 5061 5062 5064 5067 5070 5074 5076 5078 5081 5083 5086 5089 5092 5096 5100 5104 5107 5109 5111 5114 5117 5120 5124 5128 5130 5133 5133 5134 5137 5139 5141 5147 5151 5154 5158 5162 5165 5169 5172 5175 5179 5183 5188 5193
5006 5008 5010 5011 5013 5015 5017 5017 5020 5023 5027 5031 5035 5039 5046 5050 5050 5048 5050 5052 5053 5055 5057 5060 5064 5066 5068 5070 5072 5075 5078 5081 5085 5091 5095 5096 5098 5101 5104 5107 5110 5114 5117 5120 5122 5123 5124 5125 5128 5132 5137 5141 5144 5148 5152 5155 5158 5161 5165 5169 5174 5178 5183
4995 4998 5001 5003 5004 5007 5008 5009 5010 5014 5018 5022 5025 5030 5035 5039 5040 5040 5042 5043 5044 5045 5048 5050 5054 5057 5059 5060 5062 5065 5067 5071 5077 5081 5083 5086 5089 5093 5095 5097 5101 5104 5106 5109 5111 5113 5113 5115 5119 5123 5128 5132 5135 5139 5142 5146 5149 5151 5154 5158 5162 5168 5173
4986 4988 4991 4993 4995 4997 5000 5001 5001 5003 5007 5011 5016 5021 5025 5028 5030 5032 5033 5034 5034 5036 5039 5040 5043 5047 5049 5051 5052 5054 5057 5062 5067 5070 5073 5078 5082 5085 5086 5088 5090 5092 5093 5095 5098 5100 5102 5105 5109 5113 5117 5121 5125 5128 5132 5135 5138 5140 5143 5146 5151 5156 5160
4976 4979 4980 4982 4984 4986 4990 4992 4992 4993 4997 5000 5005 5010 5014 5018 5021 5022 5023 5024 5025 5027 5029 5031 5034 5037 5040 5043 5044 5045 5048 5053 5056 5060 5065 5070 5073 5075 5076 5077 5078 5079 5080 5083 5086 5089 5092 5095 5099 5102 5106 5110 5113 5117 5121 5124 5127 5130 5132 5135 5138 5143 5148
4967 4969 4970 4971 4973 4975 4978 4982 4984 4984 4986 4990 4994 4997 5002 5007 5010 5011 5012 5015 5016 5017 5019 5021 5024 5027 5031 5034 5036 5036 5038 5042 5046 5050 5056 5060 5062 5062 5063 5064 5066 5066 5068 5072 5075 5079 5082 5085 5089 5092 5095 5099 5103 5106 5110 5114 5116 5118 5119 5122 5127 5130 5135
4957 4960 4961 4961 4963 4965 4967 4971 4974 4975 4976 4980 4983 4986 4990 4994 4996 4999 5002 5005 5007 5008 5009 5012 5015 5018 5020 5023 5026 5026 5028 5032 5037 5042 5047 5049 5049 5050 5053 5055 5055 5054 5057 5062 5065 5067 5070 5074 5077 5080 5084 5089 5093 5096 5099 5102 5104 5105 5107 5111 5114 5117 5121
4948 4950 4952 4953 4955 4957 4959 4961 4964 4966 4967 4969 4971 4975 4979 4982 4983 4986 4990 4994 4996 4998 5000 5002 5005 5007 5009 5013 5015 5016 5018 5022 5028 5033 5035 5036 5036 5039 5044 5045 5044 5044 5048 5051 5054 5057 5059 5062 5064 5067 5072 5078 5081 5084 5086 5088 5090 5093 5095 5098 5101 5104 5108
4941 4943 4945 4946 4948 4949 4951 4953 4955 4957 4958 4959 4961 4964 4966 4969 4971 4974 4978 4982 4984 4986 4988 4991 4994 4996 4999 5002 5005 5006 5009 5014 5018 5021 5022 5023 5026 5030 5032 5032 5033 5035 5038 5040 5043 5046 5048 5050 5052 5055 5060 5065 5067 5070 5072 5073 5076 5080 5083 5086 5089 5091 5095
4934 4936 4939 4940 4941 4941 4942 4943 4945 4946 4948 4950 4951 4952 4954 4957 4960 4962 4965 4969 4972 4974 4976 4979 4982 4985 4987 4990 4994 4997 5000 5003 5005 5006 5008 5012 5015 5017 5019 5020 5023 5025 5027 5030 5033 5035 5037 5039 5041 5043 5047 5051 5054 5055 5057 5059 5063 5067 5070 5074 5077 5079 5083
4926 4928 4931 4932 4933 4933 4933 4934 4936 4936 4938 4940 4941 4941 4942 4944 4947 4949 4952 4956 4959 4962 4964 4967 4971 4974 4976 4979 4983 4986 4989 4991 4992 4994 4996 5000 5002 5005 5006 5009 5011 5013 5016 5020 5022 5024 5027 5028 5030 5033 5035 5038 5040 5042 5044 5047 5050 5054 5059 5062 5065 5067 5071
4918 4920 4922 4924 4925 4925 4925 4925 4926 4927 4927 4929 4931 4931 4932 4933 4935 4937 4940 4943 4947 4950 4954 4957 4960 4962 4965 4968 4971 4973 4976 4977 4978 4981 4984 4987 4990 4992 4995 4997 4999 5002 5006 5008 5011 5013 5015 5017 5018 5020 5022 5025 5027 5029 5032 5034 5037 5042 5046 5049 5052 5055 5059
4911 4912 4913 4915 4916 4917 4917 4916 4917 4918 4919 4921 4922 4922 4922 4923 4924 4925 4928 4932 4936 4939 4943 4947 4948 4950 4952 4954 4957 4959 4963 4965 4966 4968 4971 4974 4976 4979 4981 4983 4986 4990 4993 4996 4998 5000 5003 5004 5005 5007 5009 5011 5014 5016 5018 5020 5024 5028 5031 5034 5037 5041 5045
4903 4903 4905 4907 4908 4908 4908 4908 4908 4909 4911 4913 4914 4914 4913 4913 4915 4916 4919 4921 4925 4928 4932 4935 4936 4937 4938 4941 4944 4947 4950 4952 4954 4955 4957 4960 4962 4964 4966 4968 4971 4975 4978 4981 4983 4985 4988 4989 4990 4993 4995 4997 4999 5002 5004 5006 5009 5013 5015 5018 5021 5026 5030
4895 4895 4896 4898 4899 4899 4900 4901 4900 4900 4902 4904 4906 4906 4906 4906 4907 4908 4910 4912 4914 4918 4921 4923 4924 4925 4927 4930 4933 4936 4938 4940 4942 4943 4945 4947 4948 4950 4952 4954 4956 4959 4962 4965 4967 4969 4971 4973 4975 4978 4979 4981 4984 4987 4988 4990 4993 4996 4999 5001 5005 5010 5014
4888 4888 4887 4888 4889 4890 4893 4895 4893 4891 4892 4895 4896 4897 4898 4899 4899 4901 4902 4903 4905 4909 4912 4914 4914 4914 4917 4920 4923 4926 4928 4929 4930 4932 4934 4935 4935 4937 4938 4940 4942 4944 4947 4949 4952 4954 4955 4957 4960 4962 4963 4965 4968 4970 4971 4974 4976 4979 4982 4985 4989 4993 4997
4880 4880 4881 4882 4882 4882 4884 4887 4887 4885 4885 4886 4887 4888 4890 4891 4892 4892 4894 4894 4896 4899 4903 4904 4905 4906 4907 4909 4913 4915 4918 4919 4920 4922 4923 4923 4923 4924 4925 4927 4928 4931 4933 4935 4937 4939 4940 4941 4943 4945 4946 4949 4952 4954 4955 4957 4958 4961 4964 4967 4972 4976 4979
4873 4874 4875 4876 4878 4878 4877 4878 4879 4879 4879 4879 4880 4880 4881 4882 4883 4884 4885 4885 4887 4891 4894 4894 4896 4898 4898 4899 4902 4905 4907 4908 4909 4910 4911 4912 4912 4912 4912 4914 4916 4918 4920 4922 4923 4924 4925 4926 4928 4930 4931 4933 4936 4938 4939 4940 4941 4943 4946 4949 4954 4959 4962
4867 4868 4869 4869 4871 4872 4873 4873 4873 4872 4872 4872 4872 4873 4874 4874 4876 4877 4877 4876 4878 4883 4886 4886 4887 4890 4890 4890 4893 4895 4896 4897 4898 4898 4899 4900 4901 4901 4901 4901 4903 4905 4906 4907 4909 4909 4911 4912 4913 4915 4917 4919 4921 4923 4924 4925 4926 4927 4930 4934 4937 4941 4945
4862 4863 4864 4864 4864 4865 4866 4867 4867 4866 4866 4865 4865 4865 4866 4867 4869 4869 4869 4869 4871 4876 4878 4878 4878 4881 4882 4882 4885 4886 4886 4886 4887 4887 4888 4889 4890 4891 4889 4889 4889 4892 4893 4894 4895 4896 4898 4899 4899 4902 4904 4906 4906 4908 4910 4911 4912 4913 4915 4919 4923 4926 4930
4859 4859 4859 4860 4860 4860 4860 4861 4861 4860 4860 4859 4859 4859 4859 4860 4862 4862 4861 4862 4864 4869 4871 4871 4871 4873 4873 4874 4875 4876 4876 4877 4876 4876 4876 4877 4878 4879 4879 4877 4878 4879 4881 4883 4884 4885 4886 4887 4887 4889 4891 4892 4893 4895 4895 4897 4898 4899 4901 4905 4908 4912 4915
4861 4859 4858 4857 4858 4858 4858 4857 4856 4856 4856 4855 4855 4855 4854 4855 4858 4858 4857 4857 4858 4861 4863 4864 4865 4865 4865 4865 4867 4867 4867 4867 4867 4866 4866 4867 4868 4868 4868 4867 4868 4868 4870 4871 4872 4873 4874 4874 4876 4877 4878 4880 4881 4882 4883 4884 4885 4886 4889 4891 4894 4898 4901
4865 4862 4859 4858 4858 4858 4857 4856 4856 4856 4855 4854 4854 4853 4851 4853 4855 4855 4855 4854 4853 4855 4856 4858 4858 4858 4858 4857 4858 4858 4858 4858 4858 4857 4856 4857 4857 4858 4858 4858 4858 4858 4858 4860 4861 4862 4862 4863 4864 4865 4865 4867 4869 4870 4870 4871 4872 4874 4877 4879 4881 4886 4888